FW4335 Weather Reports


time (UTC)temp
C
wind
direction
speed
KPH
gust
KPH
rain 1hr
cm
rain 24hr
cm
rain mn
cm
humidity
%
barometer
mb
20260505193031 21 2 3.2 12.9 0.00 0.00 0.00 57 1016.2
20260505190143 21 12 3.2 11.3 0.00 0.00 0.00 59 1016.3
20260505184529 21 345 3.2 11.3 0.00 0.00 0.00 60 1016.4
20260505183035 20 336 3.2 12.9 0.00 0.00 0.00 60 1016.4
20260505181531 20 340 3.2 9.7 0.00 0.00 0.00 61 1016.4
20260505180033 20 335 3.2 9.7 0.00 0.00 0.00 62 1016.4
20260505174530 20 330 3.2 14.5 0.00 0.00 0.00 62 1016.4
20260505173029 20 323 1.6 8.0 0.00 0.00 0.00 63 1016.4
20260505171533 19 341 3.2 12.9 0.00 0.00 0.00 64 1016.4
20260505170036 19 351 3.2 8.0 0.00 0.00 0.00 65 1016.4
20260505164644 19 344 1.6 9.7 0.00 0.00 0.00 65 1016.4
20260505161609 18 335 1.6 6.4 0.00 0.00 0.00 68 1016.4
20260505153035 17 18 1.6 6.4 0.00 0.00 0.00 72 1016.3
20260505151532 16 64 0.0 4.8 0.00 0.00 0.00 75 1016.4
20260505121608 9 241 0.0 4.8 0.00 0.00 0.00 94 1015.2
20260505120036 10 228 0.0 4.8 0.00 0.00 0.00 94 1015.2
20260505114605 10 208 1.6 4.8 0.00 0.00 0.00 93 1015.1
20260505111532 10 225 0.0 4.8 0.00 0.00 0.00 92 1014.9
20260505101604 11 203 0.0 4.8 0.00 0.00 0.00 90 1014.5
20260505100030 11 247 0.0 6.4 0.00 0.00 0.00 90 1014.5
20260505094530 11 247 0.0 4.8 0.00 0.00 0.00 89 1014.4
20260505093032 12 257 0.0 6.4 0.00 0.00 0.00 88 1014.3
20260505091605 12 220 0.0 4.8 0.00 0.00 0.00 86 1014.2
20260505090031 12 202 0.0 4.8 0.00 0.00 0.00 85 1014.0
20260505084536 12 202 0.0 4.8 0.00 0.00 0.00 85 1013.9
20260505083035 13 157 0.0 4.8 0.00 0.00 0.00 84 1013.9
20260505080033 13 224 0.0 6.4 0.00 0.00 0.00 80 1013.7
20260505074607 14 247 0.0 3.2 0.00 0.00 0.00 78 1013.6
20260505073030 15 247 0.0 4.8 0.00 0.00 0.00 76 1013.5
20260505071533 15 247 0.0 3.2 0.00 0.00 0.00 74 1013.4
20260505070031 17 247 0.0 1.6 0.00 0.00 0.00 70 1013.3
20260505064534 17 243 0.0 3.2 0.00 0.00 0.00 67 1013.1
20260505063034 18 218 3.2 8.0 0.00 0.00 0.00 66 1013.0
20260505061536 18 192 4.8 11.3 0.00 0.00 0.00 66 1013.0
20260505060030 17 191 4.8 12.9 0.00 0.00 0.00 66 1013.0
20260505053036 18 225 0.0 4.8 0.00 0.00 0.00 63 1012.9
20260505051535 18 235 1.6 12.9 0.00 0.00 0.00 60 1012.8
20260505041532 19 225 3.2 12.9 0.00 0.00 0.00 55 1012.2
20260505034529 20 207 4.8 14.5 0.00 0.00 0.00 52 1011.7
20260505031534 21 211 6.4 17.7 0.00 0.00 0.00 50 1011.3
20260505030037 21 208 6.4 14.5 0.00 0.00 0.00 50 1010.9
20260505024605 22 223 1.6 11.3 0.00 0.00 0.00 51 1010.7
20260505021605 23 38 0.0 4.8 0.00 0.00 0.00 47 1010.5
20260505020033 25 113 0.0 1.6 0.00 0.00 0.00 45 1010.5
20260505011530 25 308 0.0 6.4 0.00 0.00 0.00 46 1010.4
20260505010035 25 303 1.6 6.4 0.00 0.00 0.00 44 1010.4
20260505004529 26 308 3.2 11.3 0.00 0.00 0.00 44 1010.3
20260505003035 26 312 1.6 8.0 0.00 0.00 0.00 43 1010.2
20260505001532 26 303 1.6 14.5 0.00 0.00 0.00 42 1010.1
20260505000040 27 307 3.2 12.9 0.00 0.00 0.00 40 1010.1
20260504234531 27 289 3.2 14.5 0.00 0.00 0.00 38 1010.1
20260504233033 28 274 4.8 19.3 0.00 0.00 0.00 38 1010.0
20260504231530 28 277 3.2 16.1 0.00 0.00 0.00 40 1010.1
20260504230036 27 304 1.6 8.0 0.00 0.00 0.00 42 1010.2
20260504223035 27 304 3.2 12.9 0.00 0.00 0.00 41 1010.5
20260504221536 27 300 3.2 14.5 0.00 0.00 0.00 41 1010.5
20260504220029 27 295 3.2 12.9 0.00 0.00 0.00 40 1010.7
20260504214531 28 295 3.2 12.9 0.00 0.00 0.00 40 1010.8
20260504213142 28 307 3.2 12.9 0.00 0.00 0.00 39 1010.9
20260504210032 27 331 1.6 12.9 0.00 0.00 0.00 40 1011.1
20260504204605 27 342 3.2 11.3 0.00 0.00 0.00 40 1011.3
20260504201534 27 3 4.8 14.5 0.00 0.00 0.00 39 1011.6
20260504200032 27 341 3.2 11.3 0.00 0.00 0.00 40 1011.7
20260504194643 27 346 3.2 14.5 0.00 0.00 0.00 40 1011.7